820  
ASUS43 KFSD 231010  
RWRSD  
 
WEATHER ROUNDUP FOR SOUTH DAKOTA  
NATIONAL WEATHER SERVICE SIOUX FALLS SD  
500 AM CDT TUE MAY 23 2017  
 
NOTE: "FAIR" INDICATES FEW OR NO CLOUDS BELOW 12,000 FEET WITH NO  
SIGNIFICANT WEATHER AND/OR S TO VISIBILITY
.  
 
 
SDZ001>005-009-010-012>017-231100-  
NORTHWEST AND NORTH CENTRAL SOUTH DAKOTA  
 
CITY SKY/WX TMP DP RH WIND PRES REMARKS
 
BUFFALO N/A 45 36 70 N10 30.09R  
FAITH N/A 40 37 89 NW10 30.09R  
MOBRIDGE MOCLDY 50 39 66 NW13 29.99S  

 
 
SDZ012>016-024>037-041>051-057-063-072>074-231100-  
SOUTHWEST AND SOUTH CENTRAL SOUTH DAKOTA  
 
CITY SKY/WX TMP DP RH WIND PRES REMARKS
 
RAPID CTY ARPT CLOUDY 49 39 68 N16 30.11R  
PIERRE CLOUDY 47 40 76 NW12 30.00R  
CUSTER CLEAR 39 31 72 N9 30.15S  
ELLSWORTH AFB CLOUDY 49 39 68 NW17 30.11R  
PHILIP PTCLDY 46 39 76 N13 30.07R  
PINE RIDGE CLOUDY 44 41 89 W7 30.10F  
SPEARFISH MOCLDY 43 37 81 W8 30.16S  
WINNER CLOUDY 51 43 74 NW18 29.96S  

 
 
SDZ004>011-016>023-039-040-231100-  
NORTHEAST SOUTH DAKOTA  
 
CITY SKY/WX TMP DP RH WIND PRES REMARKS
 
ABERDEEN CLOUDY 47 42 83 N13 29.94S  
WATERTOWN CLOUDY 46 44 93 N12 29.87S  
BROOKINGS LGT RAIN 46 44 93 N8 29.88S  
SISSETON N/A 48 46 93 N13 29.87F  

 
 
SDZ017-020-022-023-036>040-048>070-231100-  
SOUTHEAST SOUTH DAKOTA  
 
CITY SKY/WX TMP DP RH WIND PRES REMARKS
 
SIOUX FALLS CLOUDY 48 44 86 NW12 29.89F  
HURON CLOUDY 46 45 96 NW9 29.93S  
CHAMBERLAIN CLOUDY 50 44 79 N9 29.96R  
MITCHELL CLOUDY 49 45 86 NW14 29.93F  
YANKTON MOCLDY 48 44 86 W9 29.92F  

 
 
ABBREVIATIONS USED IN REMARKS  
TC - TEMPERATURE IN CELSIUS  
WCI - WIND CHILL INDEX  
HX - HEAT INDEX  
VSB - VISIBILITY  
 
 
 
CLICK HERE TO GO TO PREVIOUS BULLETINS.
HILL INDEX  
HX - HEAT INDEX  
VSB - VISIBILITY  
 
 
 
CLICK HERE TO GO TO PREVIOUS BULLETINS.

The Nexlab SD Page
The Nexlab IA Page
The Nexlab MN Page
The Nexlab NE Page Main Text Page

The Nexlab SD Page Main Text Page